Location: *
(49.3500°N, 12.6000°E)
Time: 01:49:03
(UTC+00:00)

Meteor 1-16 Rocket - Pass Details

Date: 18 October 2019
Orbit: 790 x 907 km, 81.2° (Epoch: 21 November)

Event Time Altitude Azimuth Distance (km) Brightness Sun altitude
Rises 17:29:14 0° 193° (SSW) 3,398 7.5 -12.9°
Reaches altitude 10° 17:31:40 10° 194° (SSW) 2,449 6.8 -13.3°
Maximum altitude 17:37:13 80° 282° (WNW) 838 4.3 -14.2°
Drops below altitude 10° 17:42:38 10° 10° (N) 2,397 6.5 -15.1°
Sets 17:45:01 0° 12° (NNE) 3,321 7.2 -15.5°
